COSMOS 1544 (14819 NORAD) Tracking and Keplerian Element Data

This shows tracking and keplerian element data for the satellite.

Feedback or suggestion? Click here.




ElementValue
Catalog14819
NameCOSMOS 1544
Epoch Orbit20614
Epoch Day159.88843329
Epoch Year2024
RAAN317.3303
Inclination82.4612
Eccentricity0.0004406
Argument of Perigee303.166
Mean Anonmoly56.9186
Mean Motion15.83942493
Decay Rate0.00242482
L11 14819U 84027A 24159.88843329 .00242482 00000+0 10652-2 0 9997
L22 14819 82.4612 317.3303 0004406 303.1660 56.9186 15.83942493206147



Live tracking and technical data element details for COSMOS 1544 (NORAD 14819). COSMOS 1544 can be tracked NOW for your location showing map with azimuth and elevation plus other details from your city location.







IsCatalogInMostPopularTable: catalog: 14819, numindb: 489
Update: records affected: 1



GetName: 14819 COSMOS 1544

Hit Count: updated at: Sun, 08 Feb 2026 17:51:53 GMT